TITAN 3C TRANSTAGE DEB, 38699

Orbit data source: Space-Track

TITAN 3C TRANSTAGE DEB, 38699 is space debris in GEO originally from a launch on Thu, 26 Sep 1968 UTC launched from the Air Force Eastern Test Range (AFETR). Debris objects in space refer to the collection of defunct objects orbiting the Earth. Examples of debris include non-operational satellites, rocket bodies, and fragments generated from explosions, collisions, or faulty payload assembly.

Loading next visibility...
Identifier
38699, 1968-081Z
Orbit
GEO
Country
Flag of USUS
Related business
Manufacturer
Unknown
Mission
Spacecraft
Bus & Motor
Unknown
Mass
Unknown
Launch date (UTC)
1968-09-26 (57 years ago)
Launch vehicle
Unknown
Launch site
Air Force Eastern Test Range (AFETR)
Object type
Payload
Rocket body
Debris
Shape & HBR
Unknown shape, 1.1 m
Radar Cross Section
Small (<0.1 m²)

Expand to show TLE details & history
Last TLE update: 4 days ago

TLE from 4 days ago
0 TITAN 3C TRANSTAGE DEB
1 38699U 68081Z   25287.76187391 -.00000254  00000-0  00000-0 0  9996
2 38699   1.5243  31.8318 0093395 299.4008 277.1222  1.00852697 49393
Epoch: 2025-10-14T18:17Z
TLE epoch observation values (Epoch: 2025-10-14T18:17:05.905Z)
Latitude
-0.87472°
Longitude
-50.5533°
Altitude
35,580.89 km
Speed
3.084 km/s
True Right ascension
16h 29m 04s
True Declination
0° 52' 26"
Sunlit
Object was in daylight at epoch
Visualization orbit readout
Latitude
Unknown
Longitude
Unknown
Altitude
Unknown
Speed
Unknown
Apparent Right ascension
Unknown
Apparent Declination
Unknown
Sunlit
N/A
Visualization observer readout
Local Sidereal Time
00:52:57
Azimuth
Unknown
Elevation
Unknown
Doppler factor
Unknown
Orbital elements
Apogee altitude
36,017.894 km
Perigee altitude
35,233.306 km
Semi-major axis
42,003.737 km
Eccentricity
0.00934
Inclination
1.5243°
RAAN
31.8318°
Arg. of periapsis
299.4008°
True anomaly
276.05875°
Mean anomaly
277.1222°
Eccentric anomaly
276.59062°
Mean motion
0.25212 °/min
Orbital period
1,427.88 mins
BSTAR
0
Loading maneuver chart data...
Computing Atmospheric mass density...

Documentation

Showing up to 5 results
|